Погода в Ершовском

Россия / Челябинская область     52°29′08″N   59°08′13″E
темп.,
°C
ветер,
м/с
пор.,
м/с
влажн.,
%
обл.,
%
осадки,
мм/ч
давл.,
гПа
погр.,
м
24 мая, вт
вт2423:00+10ююз3489100 1.4 100577
02:00+9ю249697 1.0 100688
05:00+10вюв389397 1.3 1005148
08:00+14ю51175100 0.0 1004439
11:00+18ююз696192 0.0 1005817
14:00+21ююз5955100 0.0 10051386
17:00+23юз3752100 0.0 10051413
20:00+18ююв51265100 0.0 1005267
25 мая, ср
ср2523:00+16ююв41270100 0.0 1006215
02:00+15ююв3864100 0.0 1006146
05:00+14ю41167100 0.0 1007254
08:00+16юв61367100 0.0 1005369
11:00+20ю61052100 0.0 1005780
14:00+20ю71260100 0.1 10061595
17:00+17з77665 0.8 1008784
20:00+13сз5869100 0.0 1010592
26 мая, чт
чт2623:00+11сз3979100 0.3 1010355
02:00+11з1282100 0.1 101171
05:00+10ссз6118299 0.6 1009371
08:00+10ссз81177100 0.0 1009649
11:00+13ссз785890 0.0 10101249
14:00+14ссз674580 0.0 10111626
17:00+15ссз674095 0.0 10121888
20:00+13сз47595 0.0 1013204
27 мая, пт
пт2723:00+9зсз410715 0.0 1015207
02:00+7сз24745 0.0 101665
05:00+7з22745 0.0 101614
08:00+10з346316 0.0 1017329
11:00+13зюз4548100 0.0 10161793
14:00+16юз4546100 0.0 10162063
17:00+15юз565754 0.0 1016949
20:00+13ю367068 0.0 1015246
28 мая, сб
сб2823:00+11ю357952 0.0 101671
02:00+10ю3779100 0.0 1015173
05:00+10ююз31086100 0.3 1015281
08:00+11ююз388333 0.0 1015257
11:00+16зюз676460 0.6 10151323
14:00+18зюз565626 0.6 10151604
17:00+19зюз565471 1.1 10151848
20:00+16з367076 0.1 1017157